Location: Unspecified
(0.0000°N, 0.0000°E)
Time: 23:31:11
(UTC+02:00)

Ariane H10 - Visible Passes

Search period start: 24 April 2014 00:00
Search period end: 04 May 2014 00:00
Orbit: 489 x 34940 km, 7.4° (Epoch: 23 April)

Date Brightness Start Highest point End Pass type
(mag) Time Alt. Az. Time Alt. Az. Time Alt. Az.
24 Apr 5.8 12:17:09 10° W 21:48:15 74° SSW 21:53:30 43° ESE visible
26 Apr 4.9 05:17:45 68° ESE 05:17:45 68° ESE 05:40:14 10° E visible
27 Apr 5.6 12:43:24 10° W 22:13:05 68° SSW 22:15:46 56° SE visible
29 Apr 4.7 08:27:05 10° E 05:40:35 86° S 15:04:16 10° E visible
30 Apr 5.5 13:10:28 10° W 22:37:22 63° SSW 22:37:52 62° S visible
02 May 5.0 06:01:49 50° W 06:04:30 88° N 15:32:29 10° E visible
03 May 5.7 13:38:49 10° W 22:59:50 53° SW 20:16:18 10° W visible
